| time (UTC) | temp C | wind direction | speed KPH | gust KPH | rain 1hr cm | rain 24hr cm | rain mn cm | humidity % | barometer mb |
| 20260506070802 | 15 | 7 | 0.0 | 0.0 | 0.00 | 0.00 | 0.00 | 71 | 1008.5 |
| 20260506070259 | 15 | 333 | 4.8 | 4.8 | 0.00 | 0.00 | 0.00 | 71 | 1008.5 |
| 20260506062236 | 15 | 20 | 0.0 | 0.0 | 0.00 | 0.00 | 0.00 | 73 | 1008.6 |
| 20260506061732 | 15 | 6 | 0.0 | 0.0 | 0.00 | 0.00 | 0.00 | 72 | 1008.4 |
| 20260506061229 | 15 | 22 | 0.0 | 0.0 | 0.00 | 0.00 | 0.00 | 72 | 1008.5 |
| 20260506060728 | 15 | 77 | 3.2 | 4.8 | 0.00 | 0.00 | 0.00 | 71 | 1008.7 |
| 20260506060225 | 15 | 311 | 3.2 | 4.8 | 0.00 | 0.00 | 0.00 | 71 | 1008.6 |
| 20260506051156 | 16 | 61 | 1.6 | 1.6 | 0.00 | 0.00 | 0.00 | 71 | 1008.4 |
| 20260506050655 | 16 | 29 | 1.6 | 3.2 | 0.00 | 0.00 | 0.00 | 72 | 1008.4 |
| 20260506050151 | 16 | 7 | 1.6 | 4.8 | 0.00 | 0.00 | 0.00 | 72 | 1008.5 |
| 20260506044643 | 16 | 69 | 1.6 | 1.6 | 0.00 | 0.00 | 0.00 | 73 | 1008.4 |
| 20260506044139 | 16 | 302 | 3.2 | 3.2 | 0.00 | 0.00 | 0.00 | 73 | 1008.3 |
| 20260506043636 | 16 | 89 | 0.0 | 1.6 | 0.00 | 0.00 | 0.00 | 74 | 1008.4 |
| 20260506043134 | 17 | 328 | 0.0 | 0.0 | 0.00 | 0.00 | 0.00 | 74 | 1008.6 |
| 20260506042633 | 17 | 9 | 4.8 | 6.4 | 0.00 | 0.00 | 0.00 | 74 | 1008.2 |
| 20260506042131 | 17 | 285 | 3.2 | 4.8 | 0.00 | 0.00 | 0.00 | 74 | 1008.2 |
| 20260506041629 | 17 | 339 | 1.6 | 3.2 | 0.00 | 0.00 | 0.00 | 74 | 1008.0 |
| 20260506041125 | 17 | 54 | 3.2 | 3.2 | 0.00 | 0.00 | 0.00 | 74 | 1008.2 |
| 20260506040623 | 17 | 30 | 1.6 | 1.6 | 0.00 | 0.00 | 0.00 | 74 | 1008.0 |
| 20260506040120 | 17 | 344 | 4.8 | 6.4 | 0.00 | 0.00 | 0.00 | 74 | 1007.9 |
| 20260506035617 | 17 | 340 | 6.4 | 6.4 | 0.00 | 0.00 | 0.00 | 74 | 1007.9 |
| 20260506035113 | 17 | 333 | 1.6 | 1.6 | 0.00 | 0.00 | 0.00 | 74 | 1007.7 |
| 20260506034611 | 17 | 356 | 1.6 | 3.2 | 0.00 | 0.00 | 0.00 | 74 | 1007.6 |
| 20260506034108 | 17 | 311 | 6.4 | 9.7 | 0.00 | 0.00 | 0.00 | 74 | 1007.8 |
| 20260506033605 | 17 | 342 | 6.4 | 14.5 | 0.00 | 0.00 | 0.00 | 73 | 1007.7 |
| 20260506033102 | 17 | 47 | 3.2 | 4.8 | 0.00 | 0.00 | 0.00 | 73 | 1007.4 |
| 20260506032559 | 17 | 7 | 1.6 | 1.6 | 0.00 | 0.00 | 0.00 | 73 | 1007.6 |
| 20260506032056 | 18 | 321 | 4.8 | 9.7 | 0.00 | 0.00 | 0.00 | 73 | 1007.4 |
| 20260506031553 | 18 | 33 | 1.6 | 3.2 | 0.00 | 0.00 | 0.00 | 73 | 1007.6 |
| 20260506031050 | 18 | 308 | 3.2 | 9.7 | 0.00 | 0.00 | 0.00 | 73 | 1007.4 |
| 20260506030549 | 18 | 17 | 1.6 | 1.6 | 0.00 | 0.00 | 0.00 | 73 | 1007.3 |
| 20260506030045 | 18 | 12 | 1.6 | 3.2 | 0.00 | 0.00 | 0.00 | 72 | 1007.2 |
| 20260506025542 | 18 | 68 | 0.0 | 0.0 | 0.00 | 0.00 | 0.00 | 72 | 1007.0 |
| 20260506025038 | 18 | 320 | 1.6 | 4.8 | 0.00 | 0.00 | 0.00 | 72 | 1006.9 |
| 20260506024535 | 19 | 322 | 3.2 | 4.8 | 0.00 | 0.00 | 0.00 | 72 | 1006.9 |
| 20260506024032 | 19 | 29 | 3.2 | 3.2 | 0.00 | 0.00 | 0.00 | 71 | 1006.8 |
| 20260506023528 | 20 | 54 | 4.8 | 6.4 | 0.00 | 0.00 | 0.00 | 71 | 1006.5 |
| 20260506023026 | 20 | 15 | 3.2 | 3.2 | 0.00 | 0.00 | 0.00 | 71 | 1006.4 |
| 20260506022523 | 20 | 0 | 4.8 | 6.4 | 0.00 | 0.00 | 0.00 | 70 | 1006.0 |
| 20260506022020 | 20 | 31 | 1.6 | 3.2 | 0.00 | 0.00 | 0.00 | 70 | 1005.9 |
| 20260506021518 | 20 | 16 | 1.6 | 3.2 | 0.00 | 0.00 | 0.00 | 70 | 1006.1 |
| 20260506021015 | 20 | 38 | 6.4 | 9.7 | 0.00 | 0.00 | 0.00 | 70 | 1005.6 |
| 20260506020512 | 20 | 324 | 1.6 | 1.6 | 0.00 | 0.00 | 0.00 | 70 | 1005.6 |
| 20260506020010 | 21 | 305 | 0.0 | 1.6 | 0.00 | 0.00 | 0.00 | 70 | 1005.7 |
| 20260506015507 | 21 | 12 | 1.6 | 3.2 | 0.00 | 0.00 | 0.00 | 69 | 1005.6 |
| 20260506015003 | 21 | 20 | 0.0 | 0.0 | 0.00 | 0.00 | 0.00 | 69 | 1005.4 |
| 20260506014501 | 21 | 328 | 1.6 | 1.6 | 0.00 | 0.00 | 0.00 | 69 | 1005.3 |
| 20260506013957 | 21 | 329 | 4.8 | 6.4 | 0.00 | 0.00 | 0.00 | 68 | 1005.0 |
| 20260506013455 | 21 | 52 | 3.2 | 3.2 | 0.00 | 0.00 | 0.00 | 68 | 1005.2 |
| 20260506012951 | 21 | 65 | 3.2 | 4.8 | 0.00 | 0.00 | 0.00 | 67 | 1005.1 |
| 20260506012447 | 22 | 351 | 3.2 | 6.4 | 0.00 | 0.00 | 0.00 | 66 | 1005.1 |
| 20260506011944 | 22 | 4 | 0.0 | 0.0 | 0.00 | 0.00 | 0.00 | 67 | 1004.9 |
| 20260506011442 | 22 | 324 | 0.0 | 0.0 | 0.00 | 0.00 | 0.00 | 67 | 1004.7 |
| 20260506010938 | 22 | 27 | 0.0 | 1.6 | 0.00 | 0.00 | 0.00 | 66 | 1004.6 |
| 20260506010438 | 22 | 308 | 0.0 | 1.6 | 0.00 | 0.00 | 0.00 | 65 | 1004.6 |
| 20260506005933 | 22 | 10 | 0.0 | 0.0 | 0.00 | 0.00 | 0.00 | 65 | 1004.9 |
| 20260506005432 | 22 | 331 | 3.2 | 3.2 | 0.00 | 0.00 | 0.00 | 65 | 1005.0 |
| 20260506004926 | 22 | 342 | 3.2 | 4.8 | 0.00 | 0.00 | 0.00 | 64 | 1003.8 |
| 20260506004425 | 23 | 334 | 0.0 | 1.6 | 0.00 | 0.00 | 0.00 | 64 | 1004.2 |
| 20260506003920 | 23 | 41 | 4.8 | 9.7 | 0.00 | 0.00 | 0.00 | 63 | 1004.5 |
| 20260506003417 | 23 | 0 | 3.2 | 4.8 | 0.00 | 0.00 | 0.00 | 63 | 1004.2 |
| 20260506002913 | 23 | 81 | 6.4 | 11.3 | 0.00 | 0.00 | 0.00 | 63 | 1004.1 |
| 20260506002409 | 23 | 28 | 1.6 | 1.6 | 0.00 | 0.00 | 0.00 | 63 | 1003.9 |
| 20260506001905 | 23 | 350 | 3.2 | 3.2 | 0.00 | 0.00 | 0.00 | 62 | 1003.7 |
| 20260506001402 | 23 | 35 | 4.8 | 12.9 | 0.00 | 0.00 | 0.00 | 62 | 1003.9 |
| 20260506000859 | 23 | 55 | 4.8 | 9.7 | 0.00 | 0.00 | 0.00 | 61 | 1003.4 |
| 20260506000357 | 24 | 338 | 3.2 | 4.8 | 0.00 | 0.00 | 0.00 | 61 | 1003.8 |
| 20260505235854 | 24 | 334 | 4.8 | 9.7 | 0.00 | 0.00 | 0.00 | 61 | 1003.7 |
| 20260505235351 | 25 | 285 | 4.8 | 4.8 | 0.00 | 0.00 | 0.00 | 60 | 1003.7 |
| 20260505234848 | 25 | 24 | 3.2 | 4.8 | 0.00 | 0.00 | 0.00 | 59 | 1003.6 |
| 20260505234346 | 25 | 14 | 3.2 | 4.8 | 0.00 | 0.00 | 0.00 | 58 | 1003.4 |
| 20260505233842 | 25 | 329 | 3.2 | 4.8 | 0.00 | 0.00 | 0.00 | 59 | 1003.6 |
| 20260505233340 | 26 | 340 | 6.4 | 6.4 | 0.00 | 0.00 | 0.00 | 57 | 1003.5 |
| 20260505232837 | 26 | 55 | 3.2 | 9.7 | 0.00 | 0.00 | 0.00 | 56 | 1003.4 |
| 20260505232335 | 26 | 18 | 1.6 | 1.6 | 0.00 | 0.00 | 0.00 | 57 | 1003.2 |
| 20260505231832 | 27 | 54 | 4.8 | 9.7 | 0.00 | 0.00 | 0.00 | 56 | 1003.5 |
| 20260505231329 | 27 | 141 | 4.8 | 9.7 | 0.00 | 0.00 | 0.00 | 55 | 1003.6 |
| 20260505230827 | 27 | 359 | 3.2 | 4.8 | 0.00 | 0.00 | 0.00 | 55 | 1003.1 |
| 20260505230324 | 27 | 8 | 3.2 | 3.2 | 0.00 | 0.00 | 0.00 | 54 | 1003.0 |
| 20260505225821 | 28 | 61 | 1.6 | 3.2 | 0.00 | 0.00 | 0.00 | 53 | 1003.0 |
| 20260505225318 | 28 | 32 | 3.2 | 3.2 | 0.00 | 0.00 | 0.00 | 53 | 1002.8 |
| 20260505224813 | 30 | 0 | 3.2 | 3.2 | 0.00 | 0.00 | 0.00 | 50 | 1002.5 |
| 20260505224311 | 30 | 19 | 3.2 | 4.8 | 0.00 | 0.00 | 0.00 | 47 | 1002.8 |
| 20260505223808 | 31 | 359 | 0.0 | 0.0 | 0.00 | 0.00 | 0.00 | 44 | 1002.6 |
| 20260505223305 | 32 | 7 | 1.6 | 3.2 | 0.00 | 0.00 | 0.00 | 41 | 1002.6 |
| 20260505222801 | 33 | 319 | 3.2 | 3.2 | 0.00 | 0.00 | 0.00 | 38 | 1002.3 |
| 20260505222257 | 33 | 24 | 1.6 | 1.6 | 0.00 | 0.00 | 0.00 | 37 | 1002.1 |
| 20260505221754 | 33 | 322 | 1.6 | 1.6 | 0.00 | 0.00 | 0.00 | 38 | 1002.1 |
| 20260505221251 | 33 | 334 | 4.8 | 4.8 | 0.00 | 0.00 | 0.00 | 36 | 1002.1 |
| 20260505220748 | 33 | 18 | 0.0 | 0.0 | 0.00 | 0.00 | 0.00 | 36 | 1001.9 |
| 20260505220245 | 35 | 344 | 0.0 | 0.0 | 0.00 | 0.00 | 0.00 | 34 | 1001.9 |
| 20260505215743 | 35 | 38 | 3.2 | 3.2 | 0.00 | 0.00 | 0.00 | 35 | 1001.9 |
| 20260505215241 | 35 | 338 | 1.6 | 1.6 | 0.00 | 0.00 | 0.00 | 36 | 1002.0 |
| 20260505214739 | 36 | 9 | 4.8 | 4.8 | 0.00 | 0.00 | 0.00 | 34 | 1002.1 |
| 20260505214236 | 36 | 286 | 1.6 | 3.2 | 0.00 | 0.00 | 0.00 | 37 | 1002.2 |
| 20260505213733 | 37 | 353 | 1.6 | 3.2 | 0.00 | 0.00 | 0.00 | 37 | 1001.8 |
| 20260505213230 | 37 | 307 | 0.0 | 1.6 | 0.00 | 0.00 | 0.00 | 37 | 1002.0 |
| 20260505212726 | 36 | 249 | 3.2 | 4.8 | 0.00 | 0.00 | 0.00 | 37 | 1001.9 |
| 20260505212223 | 35 | 314 | 1.6 | 1.6 | 0.00 | 0.00 | 0.00 | 40 | 1002.0 |
| 20260505211720 | 35 | 27 | 3.2 | 4.8 | 0.00 | 0.00 | 0.00 | 39 | 1002.2 |
| 20260505211218 | 35 | 264 | 1.6 | 3.2 | 0.00 | 0.00 | 0.00 | 39 | 1002.4 |
| 20260505210714 | 35 | 348 | 1.6 | 1.6 | 0.00 | 0.00 | 0.00 | 40 | 1002.4 |
| 20260505210211 | 36 | 108 | 6.4 | 6.4 | 0.00 | 0.00 | 0.00 | 38 | 1002.5 |
| 20260505205708 | 36 | 285 | 3.2 | 6.4 | 0.00 | 0.00 | 0.00 | 38 | 1002.3 |
| 20260505205206 | 35 | 331 | 3.2 | 4.8 | 0.00 | 0.00 | 0.00 | 41 | 1002.2 |
| 20260505204702 | 34 | 279 | 1.6 | 1.6 | 0.00 | 0.00 | 0.00 | 45 | 1002.6 |
| 20260505204200 | 34 | 224 | 4.8 | 4.8 | 0.00 | 0.00 | 0.00 | 44 | 1002.5 |
| 20260505203658 | 34 | 285 | 9.7 | 12.9 | 0.00 | 0.00 | 0.00 | 44 | 1002.6 |
| 20260505203154 | 34 | 208 | 1.6 | 3.2 | 0.00 | 0.00 | 0.00 | 44 | 1002.4 |
| 20260505202649 | 35 | 291 | 3.2 | 3.2 | 0.00 | 0.00 | 0.00 | 42 | 1002.6 |
| 20260505202146 | 35 | 303 | 3.2 | 3.2 | 0.00 | 0.00 | 0.00 | 43 | 1002.7 |
| 20260505201643 | 34 | 306 | 3.2 | 3.2 | 0.00 | 0.00 | 0.00 | 43 | 1003.1 |
| 20260505201141 | 34 | 151 | 3.2 | 4.8 | 0.00 | 0.00 | 0.00 | 44 | 1002.9 |
| 20260505200639 | 34 | 149 | 4.8 | 9.7 | 0.00 | 0.00 | 0.00 | 44 | 1002.8 |
| 20260505200135 | 34 | 142 | 1.6 | 3.2 | 0.00 | 0.00 | 0.00 | 46 | 1002.9 |
| 20260505195632 | 33 | 172 | 1.6 | 3.2 | 0.00 | 0.00 | 0.00 | 46 | 1002.8 |
| 20260505195129 | 33 | 169 | 1.6 | 1.6 | 0.00 | 0.00 | 0.00 | 46 | 1003.0 |
| 20260505194626 | 33 | 291 | 1.6 | 3.2 | 0.00 | 0.00 | 0.00 | 48 | 1002.8 |
| 20260505194122 | 33 | 201 | 3.2 | 4.8 | 0.00 | 0.00 | 0.00 | 47 | 1002.9 |
| 20260505193619 | 33 | 181 | 6.4 | 12.9 | 0.00 | 0.00 | 0.00 | 47 | 1003.0 |
| 20260505193116 | 32 | 46 | 3.2 | 3.2 | 0.00 | 0.00 | 0.00 | 48 | 1002.9 |
| 20260505192614 | 32 | 232 | 3.2 | 3.2 | 0.00 | 0.00 | 0.00 | 48 | 1003.0 |
| 20260505192111 | 32 | 301 | 1.6 | 3.2 | 0.00 | 0.00 | 0.00 | 49 | 1003.0 |
| 20260505191610 | 32 | 318 | 4.8 | 6.4 | 0.00 | 0.00 | 0.00 | 50 | 1002.9 |
| 20260505191107 | 31 | 303 | 3.2 | 6.4 | 0.00 | 0.00 | 0.00 | 51 | 1003.0 |
| 20260505190602 | 32 | 284 | 3.2 | 4.8 | 0.00 | 0.00 | 0.00 | 50 | 1002.7 |
| 20260505190058 | 32 | 278 | 1.6 | 1.6 | 0.00 | 0.00 | 0.00 | 51 | 1002.9 |
| 20260505185555 | 31 | 225 | 1.6 | 1.6 | 0.00 | 0.00 | 0.00 | 51 | 1002.9 |
| 20260505185051 | 31 | 319 | 3.2 | 4.8 | 0.00 | 0.00 | 0.00 | 51 | 1003.0 |
| 20260505184548 | 31 | 263 | 1.6 | 1.6 | 0.00 | 0.00 | 0.00 | 51 | 1003.0 |
| 20260505184045 | 31 | 185 | 1.6 | 4.8 | 0.00 | 0.00 | 0.00 | 51 | 1003.0 |
| 20260505183541 | 31 | 308 | 4.8 | 6.4 | 0.00 | 0.00 | 0.00 | 50 | 1003.0 |
| 20260505183039 | 31 | 184 | 1.6 | 3.2 | 0.00 | 0.00 | 0.00 | 51 | 1003.1 |
| 20260505182535 | 31 | 268 | 3.2 | 3.2 | 0.00 | 0.00 | 0.00 | 51 | 1002.9 |
| 20260505182032 | 31 | 258 | 1.6 | 3.2 | 0.00 | 0.00 | 0.00 | 53 | 1002.9 |
| 20260505181529 | 31 | 9 | 1.6 | 3.2 | 0.00 | 0.00 | 0.00 | 53 | 1002.9 |
| 20260505181026 | 31 | 189 | 8.0 | 9.7 | 0.00 | 0.00 | 0.00 | 54 | 1003.4 |
| 20260505180521 | 31 | 157 | 3.2 | 4.8 | 0.00 | 0.00 | 0.00 | 54 | 1003.0 |
| 20260505180020 | 31 | 243 | 3.2 | 6.4 | 0.00 | 0.00 | 0.00 | 54 | 1002.9 |
| 20260505175514 | 30 | 234 | 1.6 | 3.2 | 0.00 | 0.00 | 0.00 | 54 | 1003.1 |
| 20260505175012 | 30 | 289 | 3.2 | 4.8 | 0.00 | 0.00 | 0.00 | 56 | 1003.0 |
| 20260505174509 | 30 | 224 | 3.2 | 4.8 | 0.00 | 0.00 | 0.00 | 57 | 1003.0 |
| 20260505174004 | 30 | 72 | 6.4 | 9.7 | 0.00 | 0.00 | 0.00 | 56 | 1003.0 |
| 20260505173501 | 30 | 234 | 4.8 | 6.4 | 0.00 | 0.00 | 0.00 | 56 | 1003.0 |
| 20260505172958 | 30 | 274 | 1.6 | 4.8 | 0.00 | 0.00 | 0.00 | 56 | 1002.8 |
| 20260505172457 | 30 | 196 | 6.4 | 12.9 | 0.00 | 0.00 | 0.00 | 56 | 1003.2 |
| 20260505171956 | 30 | 169 | 6.4 | 9.7 | 0.00 | 0.00 | 0.00 | 57 | 1002.8 |
| 20260505171453 | 29 | 266 | 1.6 | 1.6 | 0.00 | 0.00 | 0.00 | 59 | 1003.0 |
| 20260505170949 | 28 | 268 | 4.8 | 9.7 | 0.00 | 0.00 | 0.00 | 61 | 1003.1 |
| 20260505170447 | 28 | 115 | 3.2 | 4.8 | 0.00 | 0.00 | 0.00 | 61 | 1003.1 |
| 20260505165942 | 28 | 286 | 1.6 | 3.2 | 0.00 | 0.00 | 0.00 | 61 | 1003.2 |
| 20260505165438 | 28 | 254 | 3.2 | 4.8 | 0.00 | 0.00 | 0.00 | 62 | 1003.4 |
| 20260505164933 | 28 | 147 | 9.7 | 11.3 | 0.00 | 0.00 | 0.00 | 61 | 1003.1 |
| 20260505164430 | 28 | 159 | 6.4 | 6.4 | 0.00 | 0.00 | 0.00 | 62 | 1003.1 |
| 20260505163928 | 28 | 223 | 4.8 | 4.8 | 0.00 | 0.00 | 0.00 | 63 | 1003.1 |
| 20260505163427 | 27 | 260 | 6.4 | 11.3 | 0.00 | 0.00 | 0.00 | 63 | 1003.2 |
| 20260505162926 | 27 | 209 | 3.2 | 3.2 | 0.00 | 0.00 | 0.00 | 65 | 1003.1 |
| 20260505162421 | 27 | 11 | 1.6 | 3.2 | 0.00 | 0.00 | 0.00 | 64 | 1003.1 |
| 20260505161918 | 27 | 181 | 4.8 | 6.4 | 0.00 | 0.00 | 0.00 | 65 | 1003.2 |
| 20260505161415 | 27 | 103 | 9.7 | 17.7 | 0.00 | 0.00 | 0.00 | 64 | 1003.1 |
| 20260505160912 | 27 | 160 | 6.4 | 11.3 | 0.00 | 0.00 | 0.00 | 64 | 1003.1 |
| 20260505160410 | 27 | 94 | 3.2 | 4.8 | 0.00 | 0.00 | 0.00 | 65 | 1002.7 |
| 20260505153349 | 27 | 205 | 6.4 | 9.7 | 0.00 | 0.00 | 0.00 | 63 | 1002.8 |
| 20260505152846 | 27 | 296 | 6.4 | 6.4 | 0.00 | 0.00 | 0.00 | 64 | 1002.6 |
| 20260505152344 | 27 | 183 | 4.8 | 6.4 | 0.00 | 0.00 | 0.00 | 66 | 1002.5 |
| 20260505151843 | 26 | 87 | 4.8 | 4.8 | 0.00 | 0.00 | 0.00 | 69 | 1002.6 |
| 20260505151340 | 25 | 165 | 4.8 | 6.4 | 0.00 | 0.00 | 0.00 | 70 | 1002.7 |
| 20260505150837 | 25 | 88 | 6.4 | 12.9 | 0.00 | 0.00 | 0.00 | 72 | 1002.8 |
| 20260505150334 | 25 | 192 | 12.9 | 17.7 | 0.00 | 0.00 | 0.00 | 71 | 1002.7 |
| 20260505140258 | 23 | 76 | 1.6 | 3.2 | 0.00 | 0.00 | 0.00 | 77 | 1002.8 |
| 20260505130222 | 22 | 191 | 4.8 | 9.7 | 0.00 | 0.00 | 0.00 | 82 | 1002.8 |
| 20260505124712 | 22 | 191 | 9.7 | 11.3 | 0.00 | 0.00 | 0.00 | 82 | 1002.6 |
| 20260505124209 | 22 | 192 | 6.4 | 9.7 | 0.00 | 0.00 | 0.00 | 82 | 1002.5 |
| 20260505123705 | 22 | 193 | 9.7 | 14.5 | 0.00 | 0.00 | 0.00 | 82 | 1002.4 |
| 20260505123202 | 22 | 225 | 3.2 | 4.8 | 0.00 | 0.00 | 0.00 | 82 | 1002.2 |
| 20260505122658 | 22 | 165 | 8.0 | 11.3 | 0.00 | 0.00 | 0.00 | 82 | 1002.0 |
| 20260505122155 | 22 | 328 | 6.4 | 9.7 | 0.00 | 0.00 | 0.00 | 82 | 1001.9 |
| 20260505121652 | 22 | 316 | 3.2 | 4.8 | 0.00 | 0.00 | 0.00 | 82 | 1002.0 |
| 20260505121148 | 22 | 170 | 6.4 | 9.7 | 0.00 | 0.00 | 0.00 | 82 | 1001.9 |
| 20260505120645 | 22 | 208 | 6.4 | 11.3 | 0.00 | 0.00 | 0.00 | 82 | 1002.0 |
| 20260505120141 | 22 | 143 | 14.5 | 16.1 | 0.00 | 0.00 | 0.00 | 82 | 1001.7 |
| 20260505115635 | 22 | 252 | 4.8 | 6.4 | 0.00 | 0.00 | 0.00 | 82 | 1001.8 |
| 20260505115133 | 22 | 231 | 6.4 | 9.7 | 0.00 | 0.00 | 0.00 | 82 | 1001.9 |
| 20260505114630 | 22 | 230 | 8.0 | 16.1 | 0.00 | 0.00 | 0.00 | 81 | 1001.8 |
| 20260505114126 | 22 | 149 | 11.3 | 17.7 | 0.00 | 0.00 | 0.00 | 81 | 1001.6 |
| 20260505113622 | 22 | 253 | 9.7 | 12.9 | 0.00 | 0.00 | 0.00 | 81 | 1002.0 |
| 20260505113119 | 22 | 297 | 3.2 | 4.8 | 0.00 | 0.00 | 0.00 | 81 | 1001.8 |
| 20260505112615 | 22 | 213 | 4.8 | 9.7 | 0.00 | 0.00 | 0.00 | 81 | 1001.7 |
| 20260505112114 | 22 | 228 | 3.2 | 3.2 | 0.00 | 0.00 | 0.00 | 81 | 1001.8 |
| 20260505111613 | 22 | 260 | 1.6 | 3.2 | 0.00 | 0.00 | 0.00 | 81 | 1001.7 |
| 20260505111109 | 22 | 195 | 3.2 | 3.2 | 0.00 | 0.00 | 0.00 | 81 | 1001.7 |
| 20260505110606 | 22 | 157 | 9.7 | 12.9 | 0.00 | 0.00 | 0.00 | 82 | 1001.4 |
| 20260505102039 | 22 | 138 | 9.7 | 16.1 | 0.00 | 0.00 | 0.00 | 80 | 1001.7 |
| 20260505101537 | 22 | 219 | 4.8 | 6.4 | 0.00 | 0.00 | 0.00 | 81 | 1001.7 |
| 20260505101033 | 22 | 182 | 12.9 | 14.5 | 0.00 | 0.00 | 0.00 | 81 | 1001.7 |
| 20260505100530 | 22 | 162 | 11.3 | 16.1 | 0.00 | 0.00 | 0.00 | 81 | 1001.9 |
| 20260505100027 | 22 | 229 | 6.4 | 11.3 | 0.00 | 0.00 | 0.00 | 80 | 1001.8 |
| 20260505095523 | 22 | 216 | 11.3 | 16.1 | 0.00 | 0.00 | 0.00 | 80 | 1001.6 |
| 20260505095019 | 22 | 134 | 4.8 | 12.9 | 0.00 | 0.00 | 0.00 | 80 | 1001.7 |
| 20260505094516 | 22 | 211 | 6.4 | 9.7 | 0.00 | 0.00 | 0.00 | 80 | 1001.8 |
| 20260505094012 | 22 | 348 | 3.2 | 4.8 | 0.00 | 0.00 | 0.00 | 80 | 1001.7 |
| 20260505093509 | 22 | 209 | 3.2 | 4.8 | 0.00 | 0.00 | 0.00 | 80 | 1002.0 |
| 20260505093006 | 22 | 180 | 4.8 | 6.4 | 0.00 | 0.00 | 0.00 | 80 | 1002.1 |
| 20260505092504 | 22 | 290 | 6.4 | 6.4 | 0.00 | 0.00 | 0.00 | 80 | 1002.2 |
| 20260505092001 | 22 | 177 | 3.2 | 4.8 | 0.00 | 0.00 | 0.00 | 80 | 1002.5 |
| 20260505091458 | 22 | 264 | 6.4 | 9.7 | 0.00 | 0.00 | 0.00 | 80 | 1002.3 |
| 20260505090957 | 22 | 275 | 3.2 | 4.8 | 0.00 | 0.00 | 0.00 | 80 | 1002.2 |
| 20260505090454 | 22 | 230 | 3.2 | 3.2 | 0.00 | 0.00 | 0.00 | 80 | 1002.3 |
| 20260505085951 | 22 | 280 | 11.3 | 14.5 | 0.00 | 0.00 | 0.00 | 80 | 1002.3 |
| 20260505085449 | 22 | 231 | 3.2 | 3.2 | 0.00 | 0.00 | 0.00 | 79 | 1002.4 |
| 20260505084947 | 22 | 223 | 8.0 | 12.9 | 0.00 | 0.00 | 0.00 | 79 | 1002.3 |
| 20260505084445 | 22 | 212 | 11.3 | 22.5 | 0.00 | 0.00 | 0.00 | 79 | 1002.3 |
| 20260505083943 | 22 | 211 | 6.4 | 11.3 | 0.00 | 0.00 | 0.00 | 79 | 1002.3 |
| 20260505083440 | 22 | 273 | 6.4 | 9.7 | 0.00 | 0.00 | 0.00 | 79 | 1002.1 |
| 20260505082936 | 22 | 163 | 1.6 | 3.2 | 0.00 | 0.00 | 0.00 | 78 | 1002.2 |
| 20260505082432 | 22 | 50 | 1.6 | 3.2 | 0.00 | 0.00 | 0.00 | 78 | 1002.4 |
| 20260505081929 | 22 | 190 | 6.4 | 9.7 | 0.00 | 0.00 | 0.00 | 78 | 1002.4 |
| 20260505081426 | 22 | 199 | 1.6 | 3.2 | 0.00 | 0.00 | 0.00 | 78 | 1002.4 |
| 20260505080922 | 22 | 264 | 1.6 | 1.6 | 0.00 | 0.00 | 0.00 | 77 | 1002.2 |
| 20260505080419 | 22 | 293 | 3.2 | 4.8 | 0.00 | 0.00 | 0.00 | 77 | 1002.4 |
| 20260505075914 | 22 | 205 | 3.2 | 6.4 | 0.00 | 0.00 | 0.00 | 77 | 1002.3 |
| 20260505075411 | 22 | 231 | 6.4 | 11.3 | 0.00 | 0.00 | 0.00 | 76 | 1002.5 |
| 20260505074909 | 22 | 278 | 8.0 | 16.1 | 0.00 | 0.00 | 0.00 | 76 | 1002.4 |
| 20260505074406 | 22 | 273 | 6.4 | 9.7 | 0.00 | 0.00 | 0.00 | 76 | 1002.5 |
| 20260505073903 | 22 | 183 | 6.4 | 9.7 | 0.00 | 0.00 | 0.00 | 75 | 1002.7 |
| 20260505073400 | 23 | 3 | 3.2 | 4.8 | 0.00 | 0.00 | 0.00 | 75 | 1002.8 |
| 20260505072858 | 23 | 75 | 6.4 | 9.7 | 0.00 | 0.00 | 0.00 | 75 | 1002.9 |
| 20260505072353 | 23 | 179 | 8.0 | 12.9 | 0.00 | 0.00 | 0.00 | 74 | 1003.0 |
| 20260505071850 | 23 | 169 | 8.0 | 11.3 | 0.00 | 0.00 | 0.00 | 74 | 1003.0 |
| 20260505071346 | 23 | 180 | 6.4 | 9.7 | 0.00 | 0.00 | 0.00 | 73 | 1003.1 |
| 20260505070845 | 23 | 356 | 4.8 | 6.4 | 0.00 | 0.00 | 0.00 | 73 | 1003.2 |